This demonstration page uses our WeatherBlox Daily Observations layout. Learn more.

Left ArrowRight Arrow

41.86663, -103.66717

Hourly Observations for July 1, 2017

Temp ( °F °C ) Dew Point ( °F °C ) Humidity (%) Winds ( mph kmh ) Pressure ( in mb ) Visibility ( mi km ) Precip ( " mm )
12:53 am 00:53 Clear 56 13.3 48 8.9 75 75 E 3 6 30.04 1017 10 16 0.00 0.00
1:53 am 01:53 Clear 54 12.2 47 8.3 77 77 NNE 3 6 30.01 1016 10 16 0.00 0.00
2:53 am 02:53 Clear 56 13.3 47 8.3 72 72 Calm 29.99 1016 10 16 0.00 0.00
3:53 am 03:53 Clear 52 11.1 47 8.3 83 83 NNW 3 6 30.00 1016 10 16 0.00 0.00
4:53 am 04:53 Clear 52 11.1 46 7.8 80 80 ESE 5 7 30.00 1016 10 16 0.00 0.00
5:53 am 05:53 Sunny 51 10.6 45 7.2 80 80 Calm 30.01 1016 10 16 0.00 0.00
6:53 am 06:53 Sunny 57 13.9 47 8.3 69 69 SE 3 6 29.99 1016 10 16 0.00 0.00
7:53 am 07:53 Sunny 61 16.1 48 8.9 63 63 Calm 29.99 1016 10 16 0.00 0.00
8:53 am 08:53 Sunny 66 18.9 48 8.9 52 52 Calm 30.01 1016 10 16 0.00 0.00
9:53 am 09:53 Sunny 72 22.2 49 9.4 44 44 Calm 29.99 1016 10 16 0.00 0.00
10:53 am 10:53 Sunny 78 25.6 50 10 37 37 NNE 5 7 29.97 1015 10 16 0.00 0.00
11:53 am 11:53 Sunny 81 27.2 48 8.9 32 32 VRB 3 6 29.96 1014 10 16 0.00 0.00
12:53 pm 12:53 Sunny 86 30 41 5 20 20 VRB 3 6 29.93 1014 10 16 0.00 0.00
1:53 pm 13:53 Sunny 87 30.6 41 5 20 20 WSW 8 13 29.91 1013 10 16 0.00 0.00
2:53 pm 14:53 Sunny 89 31.7 36 2.2 15 15 NNE 7 11 29.89 1012 10 16 0.00 0.00
3:53 pm 15:53 Sunny 89 31.7 38 3.3 16 16 VRB 5 7 29.88 1012 10 16 0.00 0.00
4:53 pm 16:53 Sunny 89 31.7 39 3.9 17 17 N 5 7 29.87 1011 10 16 0.00 0.00
5:53 pm 17:53 Sunny 89 31.7 41 5 19 19 VRB 5 7 29.87 1011 10 16 0.00 0.00
6:53 pm 18:53 Sunny 87 30.6 43 6.1 21 21 SE 5 7 29.86 1011 10 16 0.00 0.00
7:53 pm 19:53 Sunny 82 27.8 49 9.4 32 32 E 6 9 29.87 1011 10 16 0.00 0.00
8:53 pm 20:53 Clear 77 25 50 10 39 39 ESE 6 9 29.88 1012 10 16 0.00 0.00
9:53 pm 21:53 Clear 72 22.2 49 9.4 44 44 Calm 29.91 1013 10 16 0.00 0.00
10:53 pm 22:53 Clear 70 21.1 49 9.4 47 47 ENE 9 15 29.90 1013 10 16 0.00 0.00
11:53 pm 23:53 Clear 68 20 48 8.9 49 49 ENE 9 15 29.90 1013 10 16 0.00 0.00

Powered by AerisWeather